Zeit Nach Flug-Nr.
: Munich MUC167
: Munich MUC171
: Munich MUC171
Alle Abflüge →
EDDM 261420Z AUTO 10009KT 070V130 CAVOK 28/15 Q1015 NOSIG

 LIVE MAP


DEPARTURES | ARRIVALS

Flug-Nr. ETD From To Status Gate (EDDM) In Progress
MUC171 00:00 Hurghada Munich DESCEND (MUC977) 107 DELAYED
MUC171 00:00 Hurghada Munich DESCEND (MUC977) 108 DELAYED
MUC167 14:00 Madeira Munich CRUISE (MUC986) 109 DELAYED
MUC148 : Munich Oslo Gardermoen LANDED (MUC997) 110
MUC166 14:00 Munich Madeira LANDED (MUC986) 111

Weltweite Ziele

Wir fliegen sowohl kontinentale- als auch interkontinentale Ziele an

Flotte

München Airways ist mit einer der modernsten Flotten weltweit unterwegs

Real ATC

Wir fliegen auf den Online-Netzwerken "VATSIM" und "IVAO". Nach Standardphrasen der ICAO fliegen wir problemlos durch verschiedenste Lufträume weltweit

Soziales

Bei unserer Airline ist sowohl der Spass als auch die Beziehung zwischen den Piloten sehr wertvoll

Reale Flugrouten

Alle Routen werden von uns geprüft und täglich aktualisiert. Sommer- sowie Winterflugpläne bringen euch viel Abwechslung

Discord

Mittels des Discord Servers können die Piloten zusammen fliegen oder sich gegenseitig austauschen.

 LIVEBOARD

 KOMMENDE EVENTS

EventDatum

 NOTAMS

NOTAMDatum

*/